TIMESTAMP,CO2_1_1_1,H2O_1_1_1,TAU_1_1_1,TAU_SSITC_TEST_1_1_1,H_1_1_1,H_SSITC_TEST_1_1_1,LE_1_1_1,LE_SSITC_TEST_1_1_1,FC_1_1_1,FC_SSITC_TEST_1_1_1,WD_0_0_1,WS_0_0_1,WS_MAX_0_0_1,U_SIGMA_0_0_1,V_SIGMA_0_0_1,W_SIGMA_0_0_1,USTAR_0_0_1,MO_LENGTH_0_0_1,ZL_0_0_1,FETCH_MAX_0_0_1,FETCH_70_0_0_1,FETCH_80_0_0_1,FETCH_90_0_0_1,PA_0_0_1,RH_0_0_1,TA_0_0_1,VPD_0_0_1,T_SONIC_0_0_1,T_SONIC_SIGMA_0_0_1
[yyyymmddHHMMSS],[mmolCO2 mol-1],[mmolH2O mol-1],[kg m-1 s-2],[#],[W m-2],[#],[W m-2],[#],[umolCO2 m-2 s-1],[#],[Decimal degrees],[m s-1],[m s-1],[m s-1],[m s-1],[m s-1],[m s-1],[m],[#],[m],[m],[m],[m],[kPa],[%],[deg C],[hPa],[deg C],[deg C]
20211215003000,425.14481984668441,5.8578110518879818,1.6850084306660291,0,-26.039293376996831,0,0.11436338405345570,2,1.1243696292534375,0,113.43865947984537,5.4419734528861685,14.239283427842675,2.2810422598919997,1.8466373732994457,1.4228033080710978,1.1894543168610321,5392.4050708807572,3.5234741734445916E-003,108.49687268625289,198.36688657321901,237.39449961838537,297.18974326610766,94.092867764973960,81.310344827586206,1.4779310344827650,1.2672550463393486,0.86118271128339074,9.6812943633246620E-002
20211215010000,425.32472269445537,5.9294445532724449,1.6028541158659142,0,-31.347641086952358,0,-1.2551740832630380,2,1.2778412850301224,0,118.18603961719313,4.8786509561011613,15.504549439178602,2.3147537518714878,1.7307541500142314,1.3091013582341400,1.1598168191343248,4153.0573259992843,4.5749428694505994E-003,113.65480546762720,207.79723273585827,248.68021543104737,311.31812025180392,94.102498460720497,82.973333333333329,1.3666666666666742,1.1453091810409990,0.78170121680369675,9.4346192356030589E-002
20211215013000,425.39866320581410,5.9963291085500803,1.5497354558339382,0,-29.913102154687561,0,-2.7448028007546359,0,0.78888795831995773,0,114.74292161662576,5.0688042016864410,13.082104466370712,2.3414677392135750,1.6632386928784786,1.2915934019775916,1.1405581532206075,4137.8309971721173,4.5917776760300280E-003,113.35696046493968,207.25267707815402,248.02852139023102,310.50227664552995,94.063938434895832,84.243333333333339,1.3056666666666388,1.0552464599528866,0.73352263387045014,9.0004679279411401E-002
20211215020000,425.77587625686471,6.0278572350095816,1.2998992648160670,0,-36.468900747098900,0,-2.5739408210594563,1,0.91111626558291892,0,118.31774901713814,4.5647074171851161,11.230571634675266,2.0303161208993430,1.5855315930887970,1.1617201574374869,1.0444244668208604,2605.9100833220141,7.2911188001463199E-003,114.99403403905136,210.24576968946735,251.61048879945355,314.98647479016108,94.054087424696178,85.386666666666670,1.1896666666666533,0.97054648708324520,0.64140343390573662,0.10202832763321353
20211215023000,426.11815986950523,6.1102651428811612,1.5308525491412910,0,-50.894383075374463,0,-6.0334470575862449,0,1.0864531430182962,0,119.26415195906895,5.0992273975057998,14.396722501262852,2.2117524497063594,1.5347012826297957,1.2719778221105025,1.1337985622104576,2388.0577303568875,7.9562565671980265E-003,114.20891088305932,208.81031415812637,249.89261514889668,312.83590082996699,94.008548769406417,86.236666666666665,1.2339999999999804,0.91701312278718095,0.69803740344269727,0.11258792906961472
20211215030000,426.43580148602581,6.2045137169980915,1.2531515777663675,0,-35.155512449935529,0,-5.3244567487103076,0,0.49812155769279004,0,116.85641779688760,4.7060987587220904,11.492012593576430,2.0355610489242926,1.5265791907803532,1.1905028764002865,1.0263697448788744,2563.7712394884620,7.4109576187425313E-003,111.20226003384936,203.31319748366508,243.31397047275544,304.60021834581420,93.962047535156245,86.593333333333334,1.3826666666666938,0.90284470236403536,0.88102133263487303,0.12599143930510887
20211215033000,426.91139714018522,6.3189284121252207,1.3756135411768073,0,-30.253275383254941,0,-4.8689851503763570,1,0.58599341935844196,1,117.86104605265005,4.5685474060876201,13.565854398279305,2.1158204638289821,1.5964885384074725,1.2381694092335576,1.0763103298111432,3434.1309581967107,5.5326952382669329E-003,111.93885250053648,204.65992343688720,244.92565748015448,306.61785922934018,93.903133900824656,86.223333333333329,1.6883333333333326,0.94832968065613166,1.1847067743937600,0.15260544734958101
20211215040000,427.40138410032677,6.4365316127008496,1.6106999529064541,0,-8.1930770513904729,1,2.4615371734502269,2,1.4878128905467314,1,121.93881464747417,4.8624970822035456,14.561680006204622,2.4060627654234437,1.6677807610049435,1.2921182177907056,1.1658334114510838,16110.707969084438,1.1793398549871275E-003,115.32469058456695,210.85031531216617,252.33397550671756,315.89219429559984,93.862086477924635,85.163333333333327,2.1129999999999995,1.0527912768940417,1.5648455931274725,0.10031277537934154
20211215043000,427.84720732553990,6.5188353315637633,1.4784486781283830,0,-10.584444325668157,0,-3.4549870219347620,0,0.63982131177228208,0,121.04031881676343,5.1882539402362502,13.938455375104180,2.3212062585523769,1.6809753765364581,1.3140290648293877,1.1177626515888373,10986.151694375816,1.7294499956455858E-003,110.01466940249584,201.14190304694563,240.71548558833931,301.34722361795872,93.803211752179436,84.849999999999994,2.3340000000000032,1.0921064818710977,1.7642271685779178,8.3005701184876032E-002
20211215050000,428.34947841358360,6.6128387076221680,1.5921701636733745,0,-7.8032052742930942,0,-17.511842361687709,1,1.4333215554171368E-002,2,119.10218929804171,4.7587217057385924,12.078531853005002,2.2298134218002827,1.6655920071918888,1.3268250237978514,1.1604597402123276,16667.661656633114,1.1399319467490332E-003,112.48847764913414,205.66481350247409,246.12825423615806,308.12336766253418,93.738380932412340,85.773333333333341,2.3733333333333348,1.0284252368173634,1.8382212263309725,7.4726671900562411E-002
20211215053000,429.02306020650542,6.8311184837768142,1.2947830115786136,0,-15.129430468606614,0,-16.815003400026932,1,0.13388820561670817,2,125.25476085475356,5.0083473250003365,13.945267115214866,2.2195537932895903,1.7615130964915711,1.2651152298229869,1.0464455918432263,6303.0506729932968,3.0144133350235255E-003,107.57817066378593,196.68720627116750,235.38435129316477,294.67327609580917,93.723497942708335,89.150000000000006,2.2850000000000250,0.77940857040577960,1.7901354344685956,8.8657582264530813E-002
20211215060000,429.73444670610303,7.0523732931448704,1.4594480253227533,0,-20.721543503988627,0,-5.6938104720898934,0,0.69322978044882155,0,126.06774180733919,5.2462721172724969,13.505308526994806,2.3162463251689456,1.6884816000380303,1.2768201197902491,1.1111597668921944,5508.3914586423598,3.4492828156194415E-003,112.03980187098115,204.84449108221042,245.14653781237203,306.89437519466281,93.686713504774289,92.329999999999998,2.2350000000000136,0.54901259034608185,1.7623589384290881,9.2464443874434268E-002
20211215063000,430.28090619325667,7.2013204722933652,1.5942900973399616,0,-20.739881810002828,0,-5.7230236016742682,1,1.3759758771571544,0,124.99875401561482,4.7968862757939075,13.757588055438907,2.3462003971513292,1.6626648807526185,1.2800723131077267,1.1620548097179815,6292.5904853607062,3.0194242012414820E-003,115.89070009820153,211.88516122256578,253.57242175813244,317.44258204299291,93.634391396698746,93.150000000000006,2.3963333333333594,0.49598863107915575,1.9404447724601255,9.3244632212576617E-002
20211215070000,430.72117053771558,7.3415521688111820,1.2646940049226103,0,-17.354168669018630,0,5.1597831572629671,2,1.5604226944339987,1,126.28059464831105,4.9004862099981343,13.059788156456035,1.9881464340833617,1.6182275022347326,1.2188699638810367,1.0353974302602678,5317.6909557408189,3.5729793547870947E-003,109.89417322443013,200.92159760315661,240.45183623891930,301.01716591825482,93.585854943952086,94.510000000000005,2.4563333333333617,0.39921712428927891,1.9814257424544621,7.5120526860918760E-002
20211215073000,431.08412940815174,7.4903198174713443,1.3060784364367994,0,-18.378133622490505,0,-7.2587394306624518,1,0.83398673173110083,1,127.95510697410096,4.8992024845464819,12.719587428718771,2.0526272018244187,1.7032710315627928,1.2328641651637238,1.0526081214091711,5273.7594898891730,3.6027429837152624E-003,110.34079011418488,201.73815571877950,241.42904775146715,302.24051877182825,93.527012142431715,96.200000000000003,2.4803333333333057,0.27679766717406667,1.9887456084328505,7.8364009279659405E-002
20211215080000,431.51896434994831,7.5502111077729657,1.0847836011682399,0,-15.134782420572888,0,-0.12743004334204777,2,1.1565996118224275,0,129.16472707015114,4.0957493100528071,11.260581536808459,1.9238778183384360,1.4406620222159645,1.1069261344689403,0.95937034163689883,4847.8023776761502,3.9193016793534945E-003,111.67321452389615,204.17425249470134,244.34443340444744,305.89023565711278,93.507838277560765,97.096666666666664,2.4590000000000032,0.21116219642021064,1.9453848724365344,6.9875873576133146E-002
20211215083000,431.97231356732095,7.6068461215432963,0.65908416057183428,0,-23.575344966912837,0,-1.9438823207279976,1,0.77122207869876291,0,122.05762480597498,3.7289759475412145,9.9746063910208633,1.6419475506864651,1.2305514291916524,0.90363344169088100,0.74784303856750389,1473.8358560659658,1.2891530574317633E-002,107.62407407692680,196.77113235053176,235.48478937514403,294.79901265603081,93.480639404947908,98.173333333333332,2.4049999999999727,0.13234530869485525,2.0828575956556392,0.18298233696075877
20211215090000,432.43192086940854,7.6490812448186301,0.71859880031225043,0,-50.564739246036389,1,-1.1802169043372148,0,1.2726294194173342,0,124.52241845590923,3.6624643808726365,10.825374288819550,1.6751445329449790,1.2659300353982743,0.93378257820781230,0.78107164893130110,782.61647641752347,2.4277536408348704E-002,108.54529058783989,198.45540993941773,237.50043947854203,297.32236739974263,93.434012472005207,98.706666666666663,2.3996666666666897,9.3668752826091578E-002,2.2907113910251269,0.21015300078905094
20211215093000,432.84829090832960,7.7085396230211192,0.77108098478884923,0,-39.593224790330922,0,-1.0010661853011320,0,0.62229904661477498,1,125.68199185574733,3.9089928115453545,9.6624824467819099,1.6766146586267001,1.2920925349229337,0.98040216670340541,0.80945564827312999,1111.9507706269462,1.7087087398021509E-002,107.42019494550517,196.39837627437910,235.03869555521956,294.24055612890373,93.373295837022567,98.966666666666669,2.4623333333333335,7.5173154183828500E-002,2.0246969341701515,0.17921017454597277
20211215100000,433.26501045025935,7.7937744161837035,0.83467000339037534,0,-16.930811460628547,1,-3.5236509097090805,1,0.87440089806173071,0,129.51989336708098,3.7023072167970148,10.316022265591068,1.7684759538476993,1.2395903079815056,0.96663982806559334,0.84255754840635722,2931.6927757193880,6.4808973700655661E-003,112.18190499775926,205.10430091942857,245.45746383116384,307.28361767436655,93.332141542751728,99.150000000000006,2.5846666666666920,6.2376607198001470E-002,2.6470202746920677,0.25081598647485270
20211215103000,433.53536956052392,8.0224738140480660,1.0470183195959504,0,-26.341776740864038,1,1.3101283774425547,2,1.6108475870883494,0,128.29058700463685,3.8524663926786031,12.005059540791935,1.9096816574974604,1.2581594046429874,0.99719827031138963,0.94466062698135889,2654.6067748185096,7.1573689106172777E-003,119.90860161275342,219.23116663512974,262.36371404100993,328.44823676846295,93.272356669387349,99.283333333333331,2.9639999999999986,5.4027962900703413E-002,2.4777663289987117,0.23583253888950773
20211215110000,433.72538919044746,8.2673246430339002,0.62699916840654768,0,-2.7427766722967224,2,-0.36786079668268662,2,1.4504758855486974,0,128.11097319823628,3.3973584871827267,10.673549040556585,1.5452739050905064,1.1533957305877052,0.86010858029426507,0.73178242625661682,11847.706341010642,1.6036859332199862E-003,110.03170845235577,201.17305586441580,240.75276755431051,301.39389621531564,93.224416136196325,99.373333333333335,3.3686666666666838,4.8615849620086922E-002,2.5137216347446270,0.22261977860205959
20211215113000,433.93792939341324,8.4403985725142689,0.79943696629844763,0,-30.828867186064286,1,-3.0165069774102364,1,1.1424192098247603,0,131.20718378694045,3.2234653797280672,9.4634232341639848,1.5851465662429209,1.1977461809428962,0.92697065545572610,0.82687740501850959,1520.4244032298825,1.2496510816083811E-002,114.27599480599574,208.93296496457401,250.03939683876143,313.01965408792876,93.196098873480906,99.433333333333337,3.6493333333333453,4.4840746714860415E-002,3.7823761372037552,0.42824124466696306
20211215120000,434.04115177626386,8.6001298105807109,0.69024897782391581,0,6.0503462550911857,2,0.18297960485562903,2,1.1260385825079091,0,128.48359710376047,3.1662791366432659,8.7964928302831655,1.5376282066269991,1.1339697837939420,0.85573777278523200,0.76886645627653449,-6226.7015450962963,-3.0513747707986805E-003,114.93785002749966,210.14304739737943,251.48755645146377,314.83257807816102,93.158004249782977,99.496666666666670,3.9006666666666661,4.0540474084421019E-002,4.1168261472914764,0.22586215442116178
20211215123000,433.99873128744639,8.8878550575038027,0.77879666674338388,0,-9.6544125659373616,1,-6.3227701120397199,1,1.4451957257666090,0,126.16423749570046,3.5344268200855313,9.5605500878355762,1.5896625930920985,1.2586494518159397,0.91859561616436158,0.81763731881496760,4691.1018823341547,4.0502211370745493E-003,114.07854393993867,208.57196180769785,249.60736826147348,312.47880557554015,93.100686727430556,99.646666666666675,4.3389999999999986,2.9348652248529561E-002,4.3736694013808233,0.22017529926039411
20211215130000,433.88861389937534,9.2723710421187757,0.70429793827440357,0,-31.340624597348214,1,-1.7612121750868692,0,1.5204015871079379,0,120.48529163595613,3.4926350639962851,9.0233755015714081,1.5471287339935704,1.1850319462074888,0.89217131819849860,0.77868260320604865,1247.7158564580234,1.5227826032392186E-002,112.30127102947787,205.32254009525343,245.71864038556291,307.61057972813677,93.038036286675350,99.736666666666665,4.9220000000000255,2.2783414100481424E-002,3.4475235519410035,0.84369989090373043
20211215133000,434.01605115412929,9.5551676216032977,0.70310286560234236,0,-2.5024057025982653,1,-3.3235865657203214,1,1.3916987061599206,0,119.58099764956575,3.8834560802966429,9.8792115760125423,1.6441323436794750,1.2559665461815392,0.92986595681907103,0.77899144266158815,15636.308350206928,1.2151205754233260E-003,108.67878409151682,198.69947863970847,237.79252737677419,297.68802678791843,92.956573576388891,99.730000000000004,5.3416666666666401,2.4053198842258327E-002,2.7758564385308091,0.35300719497601563
20211215140000,434.19700038003919,9.6852106292066544,0.66067914811469186,0,8.6934725100686432,0,-0.99128167048140969,1,1.0757038651730786,0,121.43805939086462,3.3713347692442945,9.9858519131863250,1.5369534488529393,1.1543827433683853,0.83734780775590889,0.75550527373769627,-4105.1826987284148,-4.6282958383034381E-003,115.32413076875166,210.84929179031172,252.33275061246889,315.89066087335175,92.929168023654526,99.766666666666666,5.5266666666666424,2.1055663020599694E-002,2.7781668370564603,0.21761191458790413
20211215143000,434.33244983551964,9.9056671468247490,1.0540922401514794,0,20.956606851920611,0,-1.1827014592021410,1,1.2730009655342940,0,124.73769367454896,3.5701217147158393,15.379591322526506,1.7298396052834217,1.3871845380271484,1.0541301778057708,0.95501788435710067,-3439.1459255579325,-5.5246274543926570E-003,115.70408872385150,211.54397611360866,253.16411032260348,316.93142457770824,92.900817858284242,99.799999999999997,5.8419999999999845,1.8446721948672577E-002,4.6133784995780047,0.49659011674817494
20211215150000,434.46074244042364,10.076205972688365,0.65776722072245974,0,3.8784246661973523,2,-3.1208128692898955,1,0.70796346303533964,0,120.75498494689825,3.8899144125190701,10.674717840554234,1.4565481902156763,1.1902283787727321,0.94992413968006129,0.75489409748793812,-9175.8434202620392,-2.0706543398554861E-003,104.18677238124177,190.48664857967111,227.96386738097516,285.38371078440156,92.868458946176304,99.799999999999997,6.0836666666666588,1.8757770117906605E-002,4.8152604375339934,0.22586086995023044
20211215153000,434.50412780517422,10.291310856261028,0.65859187975702282,0,12.614438259287221,2,-7.1455715548476295,1,0.88406242988789652,0,117.98989930287009,3.9755567969165937,11.250764336698222,1.6897460628235870,1.2823895821554516,0.96054112761190114,0.75603926049045456,-2832.8585276895574,-6.7070063027454300E-003,103.38977896317708,189.02949042343542,226.22002123134706,283.20062233737917,92.808158440538193,99.826666666666668,6.3763333333333208,1.6588566198815897E-002,3.6256081475152087,0.35729998275413311
20211215160000,434.49562096561124,10.640954717475596,0.85505008264624971,0,19.243138232087226,1,-2.3674669282073841,1,1.1268246279969059,0,123.89441493186484,3.8147459442500162,9.8105037899907792,1.5576900842986341,1.3314522768791741,1.0068173340664872,0.86244355458096211,-2755.9049888999089,-6.8942870224217509E-003,110.63152456463303,202.26971101919582,242.06518368494747,303.03688547390965,92.766006435763899,99.829999999999998,6.8546666666666738,1.6814106166353895E-002,4.1379761072794281,0.40397783378167790
20211215163000,434.37605330586752,10.911887453018187,0.62990022058679818,0,-17.038565899025144,2,-5.7726406571467122,1,1.0926384265782791,0,128.79874689837698,3.4556610061286630,10.392237941145710,1.5062396675853094,1.1274072702179869,0.86400490041845246,0.74082390973954304,1972.5033257543560,9.6324298934876169E-003,110.71690264304164,202.42580937646824,242.25199355052581,303.27074925794864,92.746594101779507,99.876666666666665,7.2113333333333571,1.2500597078950477E-002,5.2686534279717421,0.29470225569836456
20211215170000,433.97500122706566,11.332010875058174,0.81790212231800219,0,-23.169075352550877,1,-6.8629070880940652,2,0.93059021150693211,0,124.70842989160982,3.8672985961736019,10.077452992195916,1.5830790600565885,1.2816662260481901,0.92993464613859422,0.84544637072275575,2154.7362816018945,8.8177844139120543E-003,116.02773342573410,212.13570184983351,253.87225490000284,317.81793755711976,92.658048745442713,99.900000000000006,7.7466666666666697,1.0513350029734738E-002,5.8625515851621799,0.26338582734000054
20211215173000,433.44973118904738,11.981825335034582,0.85737533676885846,0,12.948619440673111,0,-4.4155859503402350,1,1.1386742677577337,0,132.09527404204132,3.8065219457504393,9.9906473595616649,1.6519826777138851,1.2419471366588957,1.0408450558626221,0.86731827943597017,-4160.5761282671874,-4.5666752426215531E-003,108.21534107630464,197.85215700033191,236.77849978340680,296.41858456991406,92.581150071579117,99.900000000000006,8.5546666666666624,1.1106994245121769E-002,5.0797333732855918,0.44363412414433484
20211215180000,433.13735413507419,12.433018474370664,1.0915339985977082,0,119.07347865095987,0,-1.0725727107595233,2,1.2078865293196921,0,134.49705809687728,3.7604812392179570,10.432474659866264,1.7999866734087944,1.2695398889892973,0.98990194504654305,0.98002484415137370,-652.41400414756049,-2.9122612143841493E-002,124.21407971379854,227.10295376565145,271.78423275375832,340.24160831740693,92.505938863064259,99.900000000000006,9.0893333333333430,1.1515881446914591E-002,6.7440736827143724,0.98677942980018518
20211215183000,432.85323094735566,12.995881809160869,0.71896035579810058,0,-23.323937281139148,2,-4.6422941078577642,1,1.0434035632573129,0,128.56262813174342,4.1639680655905664,10.566601060045985,1.6512302451878842,1.3384756771112725,1.0145914139302656,0.79676379007445219,1788.7492920517525,1.0621946901349376E-002,103.20140851204911,188.68508916109948,225.80786088164072,282.68464648827313,92.413081577256932,99.900000000000006,9.7323333333333153,1.2025141526669359E-002,6.8352164193611316,0.72303857621711765
20211215190000,432.48398526147997,13.628404961651260,0.84345438987660670,0,6.2641253579378473,2,-2.3645676851848894,0,1.4508302789713263,0,137.15322964659015,4.3545533306196882,12.124497051921152,1.8734424088332018,1.5793030609133001,1.1108201419796013,0.86449011527478703,-8503.5536980534671,-2.2343599716844564E-003,102.45848466379925,187.32678742309011,224.18232061634799,280.64966296975166,92.343201616102434,99.900000000000006,10.430999999999983,1.2600882120586902E-002,6.2236538280910736,0.30132705257009246
20211215193000,431.73686338117773,14.602391285336852,1.0156175631473690,0,-16.993872215156717,1,9.6454024000171135,2,1.3120119364459575,0,141.28376258496820,4.3996174726673134,11.359895673858068,1.8073750811488458,1.4841846601171067,1.1580897995770572,0.95084583567628667,4169.5241593984301,4.5568749031403332E-003,106.94222059668817,195.52448672264180,233.99287295629583,292.93131033687541,92.279594873046889,99.900000000000006,11.459000000000003,1.3492134187558805E-002,6.7920967491998567,0.34592821264392437
20211215200000,431.31387994651669,15.504147312312773,1.0830539444504437,0,11.867507414382525,1,-8.3115624530108700,1,1.5136239175363606,0,143.01947729475341,4.2475482099230568,12.076105678804234,1.9353873963370916,1.5887491549694033,1.2140190874883301,0.98390620630830494,-6613.7626960303087,-2.8727973580612619E-003,105.83698214999700,193.50375834436727,231.57457718873039,289.90389100129858,92.226978947553576,99.900000000000006,12.358666666666693,1.4317159394290685E-002,7.5870976606474301,0.27744857594528338
20211215203000,431.41678074985657,15.954832380712897,0.86111581991952157,0,7.9261286886934617,2,0.51206907384960498,2,0.69171478323153757,0,142.60964023918910,4.4048683334901080,12.845582995786916,1.7711604085317247,1.5258723889055945,1.1135104843872068,0.87814100157461805,-7039.8343686786675,-2.6989271344982197E-003,103.55017941621347,189.32275360868661,226.57098236363009,283.63998402843453,92.210945020182294,99.900000000000006,12.792666666666662,1.4730778859043312E-002,7.9708569985143072,0.30168538564576802
20211215210000,431.53661219333276,16.204007498288831,0.94064958429881584,0,49.651418890001196,1,-6.2064185581002818,1,1.3707214198892899,0,142.52789693392765,3.7363262737957723,12.779715007780421,1.7429815454669035,1.5357571830247991,1.1473934126706200,0.91830101171905609,-1285.0464175328821,-1.4785458128802435E-002,104.77871506974886,191.56890860469957,229.25905621786694,287.00513351549165,92.194196919270823,99.900000000000006,13.026666666666642,1.4958119971829546E-002,8.1656671002705252,0.42419672618196141
20211215213000,431.67887805931355,16.314332445532198,0.67600503630257069,0,8.4100789830166516,0,-2.9115874477097634,0,1.2019406009268776,0,139.05482476166165,3.6019557262033111,8.6977250038720477,1.5326881112550046,1.2596815009071247,0.95728521746050965,0.77876702067639214,-4626.1106981411313,-4.1071217789134615E-003,106.15680989741666,194.08850547047871,232.27437015218587,290.77994875109096,92.161196323567708,99.900000000000006,13.125000000000000,1.5054571635046159E-002,7.9631014819674988,0.29708297407124629
20211215220000,431.47016185502719,16.490514940946007,0.63140553980651681,0,-11.055520766099749,1,-2.8772084397448721,0,1.5200956834936692,0,139.59509301429253,3.9396101080897847,10.016276416533172,1.5295038644693122,1.2363642292761887,0.97752386541732950,0.75307053607123386,3181.0502296500895,5.9728701618427353E-003,101.62990729321591,185.81188372846529,222.36936780568439,278.38006118360749,92.112074981770832,99.900000000000006,13.281333333333350,1.5209039017413488E-002,8.8830902413263289,0.49447222408749508
20211215223000,431.22688582784480,16.720083316933561,0.77674669874220770,0,-32.317987659460428,0,-1.0151196805500988,0,1.6752526068013576,0,139.41831033678415,3.6793097072852472,9.6689230392038823,1.5286818834318217,1.3492182233368191,1.0512875956089083,0.83584597654126158,1487.3290670894660,1.2774577207168311E-002,104.22662447056652,190.55951090912876,228.05106498003735,285.49287183118395,92.055875149338746,99.900000000000006,13.483999999999980,1.5411359074691973E-002,7.7113997393911404,0.22260934565932713